FW93366 Weather Reports


time (UTC)temp
F
wind
direction
speed
knots
gust
knots
rain 1hr
in
rain 24hr
in
rain mn
in
humidity
%
barometer
mb
20260905114555 45 0 0.0 1.7 0.00 0.00 0.00 76 1016.8
20260905113048 46 260 0.0 6.1 0.00 0.00 0.00 75 1016.8
20260905111640 45 0 0.0 7.0 0.00 0.00 0.00 76 1016.9
20260905110045 46 150 0.0 5.2 0.00 0.00 0.00 73 1016.9
20260905104550 47 0 0.0 2.6 0.00 0.00 0.00 73 1016.7
20260905103049 47 0 0.0 2.6 0.00 0.00 0.00 72 1016.7
20260905101556 48 0 0.0 3.5 0.00 0.00 0.00 71 1016.8
20260905100108 49 0 0.0 2.6 0.00 0.00 0.00 70 1016.9
20260905094556 49 346 0.0 2.6 0.00 0.00 0.00 69 1017.0
20260905093053 49 18 0.0 3.5 0.00 0.00 0.00 69 1016.8
20260905091547 50 0 0.0 1.7 0.00 0.00 0.00 66 1017.0
20260905090050 52 0 0.0 0.0 0.00 0.00 0.00 64 1016.7
20260905084551 54 0 0.0 0.9 0.00 0.00 0.00 62 1016.9
20260905083046 52 0 0.0 1.7 0.00 0.00 0.00 64 1016.8
20260905081604 52 0 0.9 5.2 0.00 0.00 0.00 64 1017.0
20260905080059 52 0 0.0 3.5 0.00 0.00 0.00 64 1016.9
20260905074548 52 0 0.0 0.0 0.00 0.00 0.00 64 1017.1
20260905073050 52 0 0.0 6.1 0.00 0.00 0.00 61 1016.7
20260905071547 52 211 0.0 3.5 0.00 0.00 0.00 62 1016.8
20260905070100 52 0 0.0 1.7 0.00 0.00 0.00 63 1016.9
20260905064550 52 0 0.0 3.5 0.00 0.00 0.00 64 1016.7
20260905063059 52 0 0.0 0.0 0.00 0.00 0.00 63 1016.7
20260905061611 54 0 0.0 0.0 0.00 0.00 0.00 61 1016.5
20260905060100 55 0 0.0 0.9 0.00 0.00 0.00 59 1016.3
20260905054551 55 0 0.0 1.7 0.00 0.00 0.00 60 1016.3
20260905053058 55 0 0.0 2.6 0.00 0.00 0.00 60 1016.1
20260905051554 55 0 0.0 5.2 0.00 0.00 0.00 58 1015.8
20260905044600 57 0 0.0 2.6 0.00 0.00 0.00 55 1015.7
20260905043048 57 294 3.5 7.8 0.00 0.00 0.00 55 1015.6
20260905041551 58 271 0.9 5.2 0.00 0.00 0.00 53 1015.7
20260905040052 57 0 0.0 8.7 0.00 0.00 0.00 54 1015.6
20260905034548 57 0 0.0 3.5 0.00 0.00 0.00 55 1015.5
20260905033048 58 223 0.9 3.5 0.00 0.00 0.00 55 1015.5
20260905031556 58 0 0.0 2.6 0.00 0.00 0.00 54 1015.2
20260905024558 60 0 0.9 6.1 0.00 0.00 0.00 50 1015.1
20260905023058 60 163 1.7 7.8 0.00 0.00 0.00 50 1015.1
20260905021555 61 169 1.7 11.3 0.00 0.00 0.00 48 1015.0
20260905020100 62 157 3.5 7.8 0.00 0.00 0.00 47 1015.0
20260905014556 63 153 0.9 9.6 0.00 0.00 0.00 46 1015.0
20260905013050 64 180 5.2 14.8 0.00 0.00 0.00 45 1015.1
20260905011549 63 166 4.3 10.4 0.00 0.00 0.00 46 1015.0
20260905010113 63 196 3.5 13.0 0.00 0.00 0.00 46 1015.1
20260905004613 64 174 3.5 18.2 0.00 0.00 0.00 46 1014.8
20260905003056 64 169 6.1 14.8 0.00 0.00 0.00 45 1014.6
20260905001558 64 172 5.2 13.9 0.00 0.00 0.00 45 1014.6
20260905000051 65 154 7.0 17.4 0.00 0.00 0.00 43 1014.5
20260904234548 65 200 8.7 17.4 0.00 0.00 0.00 42 1014.4
20260904233052 66 161 7.8 17.4 0.00 0.00 0.00 42 1014.5
20260904231551 65 173 4.3 14.8 0.00 0.00 0.00 43 1014.3
20260904230052 65 180 5.2 13.9 0.00 0.00 0.00 43 1014.5
20260904224552 65 203 7.8 19.1 0.00 0.00 0.00 43 1014.5
20260904223046 66 178 7.8 18.2 0.00 0.00 0.00 43 1014.5
20260904221601 66 171 6.1 17.4 0.00 0.00 0.00 41 1014.2
20260904220056 66 198 6.1 16.5 0.00 0.00 0.00 42 1014.3
20260904214554 67 167 9.6 23.5 0.00 0.00 0.00 40 1014.3
20260904213053 67 238 7.8 17.4 0.00 0.00 0.00 41 1014.3
20260904211550 67 165 10.4 20.0 0.00 0.00 0.00 41 1014.3
20260904210052 67 226 5.2 14.8 0.00 0.00 0.00 42 1014.3
20260904204556 67 185 4.3 14.8 0.00 0.00 0.00 43 1014.3
20260904203050 66 191 7.0 18.2 0.00 0.00 0.00 43 1014.4
20260904201552 65 200 11.3 19.1 0.00 0.00 0.00 44 1014.3
20260904200047 65 156 8.7 19.1 0.00 0.00 0.00 44 1014.3
20260904194559 65 196 12.2 23.5 0.00 0.00 0.00 44 1014.4
20260904193054 65 191 8.7 24.3 0.00 0.00 0.00 45 1014.3
20260904191546 65 181 9.6 19.1 0.00 0.00 0.00 44 1014.4
20260904190056 65 195 8.7 17.4 0.00 0.00 0.00 44 1014.4
20260904184555 65 166 11.3 24.3 0.00 0.00 0.00 44 1014.5
20260904183051 64 190 10.4 20.9 0.00 0.00 0.00 46 1014.4
20260904181553 63 169 10.4 19.1 0.00 0.00 0.00 46 1014.4
20260904180055 63 161 8.7 23.5 0.00 0.00 0.00 47 1014.4
20260904174606 63 158 7.8 21.7 0.00 0.00 0.00 48 1014.2
20260904173103 62 155 8.7 21.7 0.00 0.00 0.00 48 1014.1
20260904171557 62 183 10.4 20.9 0.00 0.00 0.00 48 1014.0
20260904170057 62 140 7.0 19.1 0.00 0.00 0.00 50 1013.8
20260904164556 62 182 7.0 15.6 0.00 0.00 0.00 51 1013.7
20260904163051 62 168 5.2 13.0 0.00 0.00 0.00 51 1013.5
20260904161550 61 162 6.1 17.4 0.00 0.00 0.00 52 1013.3
20260904160100 61 149 4.3 17.4 0.00 0.00 0.00 52 1013.2
20260904154557 61 157 7.0 15.6 0.00 0.00 0.00 52 1013.2
20260904153122 60 162 6.1 14.8 0.00 0.00 0.00 53 1013.2
20260904151545 60 153 4.3 15.6 0.00 0.00 0.00 52 1013.1
20260904150057 60 140 4.3 11.3 0.00 0.00 0.00 53 1013.1
20260904144549 60 155 5.2 11.3 0.00 0.00 0.00 53 1013.1
20260904143055 60 134 5.2 14.8 0.00 0.00 0.00 52 1012.9
20260904141557 60 159 5.2 10.4 0.00 0.00 0.00 53 1012.8
20260904140050 59 161 5.2 14.8 0.00 0.00 0.00 54 1012.6
20260904134553 60 196 3.5 14.8 0.00 0.00 0.00 53 1012.6
20260904133101 59 165 5.2 20.0 0.00 0.00 0.00 54 1012.4
20260904131626 60 206 4.3 13.0 0.00 0.00 0.00 53 1012.4
20260904130056 60 178 4.3 13.9 0.00 0.00 0.00 53 1012.2
20260904124547 60 164 3.5 14.8 0.00 0.00 0.00 53 1012.1
20260904123101 60 86 4.3 14.8 0.00 0.00 0.00 53 1012.2
20260904121554 60 159 2.6 17.4 0.00 0.00 0.00 53 1012.0
20260904120054 60 152 3.5 14.8 0.00 0.00 0.00 52 1012.0